GW0441 Weather Reports


time (UTC)temp
C
wind
direction
speed
KPH
gust
KPH
rain 1hr
cm
rain 24hr
cm
rain mn
cm
humidity
%
barometer
mb
20260906214552 39 156 17.7 30.6 0.00 0.00 0.00 28 1011.9
20260906213055 39 156 6.4 29.0 0.00 0.00 0.00 27 1012.0
20260906211558 39 145 16.1 30.6 0.00 0.00 0.00 28 1012.1
20260906210051 38 163 12.9 29.0 0.00 0.00 0.00 29 1012.4
20260906204620 39 126 11.3 27.4 0.00 0.00 0.00 29 1012.5
20260906203054 38 155 24.1 30.6 0.00 0.00 0.00 30 1012.9
20260906201615 38 136 19.3 29.0 0.00 0.00 0.00 31 1013.1
20260906200052 38 146 17.7 29.0 0.00 0.00 0.00 29 1013.2
20260906194602 39 184 4.8 27.4 0.00 0.00 0.00 29 1013.4
20260906193054 38 0 6.4 27.4 0.00 0.00 0.00 30 1013.6
20260906191552 38 157 20.9 30.6 0.00 0.00 0.00 28 1013.8
20260906190051 37 116 19.3 27.4 0.00 0.00 0.00 32 1013.8
20260906184559 37 116 17.7 30.6 0.00 0.00 0.00 33 1014.0
20260906183101 37 153 14.5 27.4 0.00 0.00 0.00 34 1014.3
20260906181557 37 133 12.9 30.6 0.00 0.00 0.00 35 1014.4
20260906180049 37 117 9.7 20.9 0.00 0.00 0.00 34 1014.6
20260906174608 37 132 14.5 25.7 0.00 0.00 0.00 35 1014.9
20260906173055 37 119 20.9 29.0 0.00 0.00 0.00 35 1014.9
20260906171556 37 99 11.3 27.4 0.00 0.00 0.00 36 1015.2
20260906170100 37 0 1.6 25.7 0.00 0.00 0.00 37 1015.6
20260906164546 36 155 9.7 17.7 0.00 0.00 0.00 38 1015.8
20260906163055 36 140 1.6 17.7 0.00 0.00 0.00 39 1016.0
20260906161556 35 0 1.6 12.9 0.00 0.00 0.00 41 1016.1
20260906160049 35 84 0.0 6.4 0.00 0.00 0.00 42 1015.9
20260906154558 34 0 0.0 11.3 0.00 0.00 0.00 44 1016.0
20260906153112 33 0 0.0 1.6 0.00 0.00 0.00 45 1015.9
20260906151552 33 111 0.0 1.6 0.00 0.00 0.00 47 1015.8
20260906150050 32 0 0.0 0.0 0.00 0.00 0.00 49 1015.6
20260906144553 32 0 0.0 6.4 0.00 0.00 0.00 49 1015.7
20260906143056 31 0 0.0 0.0 0.00 0.00 0.00 51 1015.8
20260906141556 30 0 0.0 0.0 0.00 0.00 0.00 53 1015.8
20260906140056 29 0 0.0 0.0 0.00 0.00 0.00 57 1015.6
20260906134549 28 0 0.0 0.0 0.00 0.00 0.00 59 1015.5
20260906133100 27 0 0.0 0.0 0.00 0.00 0.00 61 1015.3
20260906131554 26 0 0.0 0.0 0.00 0.00 0.00 64 1015.3
20260906124548 25 0 0.0 8.0 0.00 0.00 0.00 67 1014.7
20260906123058 25 144 4.8 8.0 0.00 0.00 0.00 67 1014.6
20260906121603 25 157 4.8 11.3 0.00 0.00 0.00 67 1014.5
20260906120054 25 182 8.0 11.3 0.00 0.00 0.00 67 1014.2
20260906114549 25 172 6.4 11.3 0.00 0.00 0.00 66 1014.0
20260906113057 25 165 8.0 14.5 0.00 0.00 0.00 66 1014.0
20260906111619 25 192 6.4 9.7 0.00 0.00 0.00 65 1013.8
20260906110053 25 170 6.4 11.3 0.00 0.00 0.00 64 1013.8
20260906104551 25 195 8.0 12.9 0.00 0.00 0.00 64 1013.6
20260906103046 25 0 0.0 0.0 0.00 0.00 0.00 63 1013.5
20260906101557 25 0 0.0 0.0 0.00 0.00 0.00 63 1013.5
20260906100053 25 0 0.0 0.0 0.00 0.00 0.00 62 1013.4
20260906094547 26 0 0.0 0.0 0.00 0.00 0.00 60 1013.3
20260906093104 26 0 0.0 0.0 0.00 0.00 0.00 59 1013.3
20260906091553 26 211 4.8 9.7 0.00 0.00 0.00 58 1013.4
20260906090111 27 185 6.4 11.3 0.00 0.00 0.00 57 1013.5
20260906084611 27 0 0.0 0.0 0.00 0.00 0.00 56 1013.4
20260906083057 27 0 0.0 0.0 0.00 0.00 0.00 55 1013.2
20260906081600 27 0 0.0 0.0 0.00 0.00 0.00 54 1013.3
20260906080100 27 0 0.0 0.0 0.00 0.00 0.00 53 1013.2
20260906074603 28 0 0.0 0.0 0.00 0.00 0.00 52 1013.3
20260906073055 28 0 0.0 0.0 0.00 0.00 0.00 51 1013.3
20260906071557 28 195 6.4 11.3 0.00 0.00 0.00 51 1013.3
20260906070115 28 171 9.7 19.3 0.00 0.00 0.00 50 1013.1
20260906064552 28 165 8.0 14.5 0.00 0.00 0.00 50 1013.1
20260906063051 28 172 6.4 16.1 0.00 0.00 0.00 49 1013.0
20260906061632 29 139 6.4 16.1 0.00 0.00 0.00 49 1013.3
20260906060057 29 176 9.7 16.1 0.00 0.00 0.00 48 1013.3
20260906054553 30 190 8.0 16.1 0.00 0.00 0.00 47 1013.4
20260906053058 30 161 11.3 19.3 0.00 0.00 0.00 46 1013.5
20260906051554 31 165 16.1 24.1 0.00 0.00 0.00 45 1013.7
20260906050108 31 151 12.9 20.9 0.00 0.00 0.00 45 1013.7
20260906044550 31 171 11.3 20.9 0.00 0.00 0.00 44 1013.6
20260906043109 31 146 14.5 22.5 0.00 0.00 0.00 43 1013.7
20260906041546 31 151 14.5 20.9 0.00 0.00 0.00 43 1013.8
20260906040113 31 140 12.9 20.9 0.00 0.00 0.00 43 1013.7
20260906034550 31 146 14.5 22.5 0.00 0.00 0.00 42 1013.6
20260906033058 32 150 16.1 22.5 0.00 0.00 0.00 42 1013.6
20260906031603 32 141 16.1 24.1 0.00 0.00 0.00 41 1013.3
20260906030104 32 135 16.1 20.9 0.00 0.00 0.00 41 1013.0
20260906024558 32 146 17.7 24.1 0.00 0.00 0.00 40 1012.7
20260906023122 32 136 16.1 20.9 0.00 0.00 0.00 39 1012.5
20260906021555 33 140 14.5 20.9 0.00 0.00 0.00 39 1012.3
20260906020053 33 118 14.5 20.9 0.00 0.00 0.00 38 1012.1
20260906014623 33 126 12.9 19.3 0.00 0.00 0.00 37 1011.8
20260906013059 33 140 11.3 17.7 0.00 0.00 0.00 36 1011.6
20260906011559 35 134 12.9 25.7 0.00 0.00 0.00 35 1011.4
20260906010053 35 134 14.5 20.9 0.00 0.00 0.00 35 1011.3
20260906004608 35 138 17.7 25.7 0.00 0.00 0.00 34 1011.2
20260906003056 36 151 16.1 24.1 0.00 0.00 0.00 34 1011.1
20260906001553 36 154 19.3 27.4 0.00 0.00 0.00 32 1011.0
20260906000056 37 143 19.3 27.4 0.00 0.00 0.00 31 1011.0
20260905234602 37 130 16.1 27.4 0.00 0.00 0.00 31 1010.7
20260905233057 37 138 16.1 25.7 0.00 0.00 0.00 31 1010.6
20260905231554 37 119 14.5 25.7 0.00 0.00 0.00 31 1010.5
20260905230101 38 158 14.5 25.7 0.00 0.00 0.00 30 1010.6
20260905224605 38 145 17.7 29.0 0.00 0.00 0.00 30 1010.7
20260905223053 38 138 14.5 25.7 0.00 0.00 0.00 29 1010.8
20260905221549 38 152 12.9 25.7 0.00 0.00 0.00 29 1010.8
20260905220106 38 164 8.0 29.0 0.00 0.00 0.00 30 1010.8